Appleton, MN

2:30 AM CST on November 18, 2019 (GMT -0600)
Appleton Municipal

Weather History for KAQP - August, 2019

Change the Weather History Date:

Wednesday, August 21, 2019

  Actual Average Record
Temperature  
Mean Temperature 64 °F -  
Max Temperature 75 °F 77 °F 91 °F (2013)
Min Temperature 53 °F 55 °F 32 °F (2004)
Degree Days  
Heating Degree Days 1    
Growing Degree Days 14 (Base 50)    
Moisture  
Dew Point 53 °F    
Average Humidity 69    
Maximum Humidity 94    
Minimum Humidity 38    
Precipitation  
Precipitation 0.00 in - - ()
Sea Level Pressure  
Sea Level Pressure 30.09 in    
Wind  
Wind Speed 1 mph (NW)    
Max Wind Speed 12 mph    
Max Gust Speed 16 mph    
Visibility 10 miles    
Events      
Averages and records for this station are not official NWS values.
T = Trace of Precipitation, MM = Missing Value Source: NWS Daily Summary

Daily Weather History Graph

Daily Weather History Graph

Search for Another Location

Airport or City:

Astronomy

Aug. 21, 2019 Rise Set
Actual Time 6:32 AM CDT 8:21 PM CDT
Civil Twilight 6:00 AM CDT 8:52 PM CDT
Nautical Twilight 5:22 AM CDT 9:30 PM CDT
Astronomical Twilight 4:40 AM CDT 10:12 PM CDT
Moon 11:22 PM CDT (8/21) 12:24 PM CDT (8/21)
Length of Visible Light 14h 51m
Length of Day
13h 48m
Waning Gibbous, 69% of the Moon is Illuminated
Aug 21
Waning Gibbous
Aug 23
Last Quarter
Aug 30
New
Sep 5
First Quarter
Sep 13
Full

Hourly Weather History & Observations

Time (CDT) Temp. Dew Point Humidity Pressure Visibility Wind Dir Wind Speed Gust Speed Precip Events Conditions
12:31 AM 60.8 °F 53.6 °F 77% 30.09 in 10.0 mi Calm Calm - N/A   Clear
12:51 AM 60.8 °F 53.6 °F 77% 30.09 in 10.0 mi Calm Calm - N/A   Clear
1:12 AM 60.8 °F 53.6 °F 77% 30.09 in 10.0 mi Calm Calm - N/A   Clear
1:31 AM 57.2 °F 53.6 °F 88% 30.10 in 10.0 mi Calm Calm - N/A   Clear
1:53 AM 55.4 °F 53.6 °F 94% 30.10 in 10.0 mi Calm Calm - N/A   Clear
2:11 AM 55.4 °F 53.6 °F 94% 30.11 in 10.0 mi Calm Calm - N/A   Clear
2:32 AM 55.4 °F 51.8 °F 88% 30.10 in 10.0 mi Calm Calm - N/A   Clear
2:53 AM 55.4 °F 51.8 °F 88% 30.10 in 10.0 mi Calm Calm - N/A   Clear
3:11 AM 55.4 °F 51.8 °F 88% 30.09 in 10.0 mi Calm Calm - N/A   Clear
3:34 AM 55.4 °F 51.8 °F 88% 30.08 in 10.0 mi Calm Calm - N/A   Clear
3:51 AM 55.4 °F 51.8 °F 88% 30.07 in 10.0 mi Calm Calm - N/A   Clear
4:11 AM 53.6 °F 51.8 °F 94% 30.05 in 10.0 mi Calm Calm - N/A   Clear
4:34 AM 55.4 °F 51.8 °F 88% 30.05 in 10.0 mi Calm Calm - N/A   Clear
4:51 AM 53.6 °F 50.0 °F 88% 30.05 in 10.0 mi Calm Calm - N/A   Clear
5:12 AM 55.4 °F 51.8 °F 88% 30.06 in 10.0 mi Calm Calm - N/A   Clear
5:31 AM 53.6 °F 50.0 °F 88% 30.08 in 10.0 mi Calm Calm - N/A   Clear
5:52 AM 55.4 °F 51.8 °F 88% 30.11 in 10.0 mi Calm Calm - N/A   Clear
6:11 AM 53.6 °F 51.8 °F 94% 30.11 in 7.0 mi Calm Calm - N/A   Clear
6:51 AM 55.4 °F 51.8 °F 88% 30.11 in 10.0 mi Calm Calm - N/A   Clear
7:11 AM 55.4 °F 53.6 °F 94% 30.12 in 10.0 mi Calm Calm - N/A   Clear
7:31 AM 57.2 °F 55.4 °F 94% 30.13 in 10.0 mi Calm Calm - N/A   Clear
7:51 AM 59.0 °F 55.4 °F 88% 30.13 in 10.0 mi Calm Calm - N/A   Clear
8:16 AM 60.8 °F 55.4 °F 82% 30.13 in 10.0 mi Calm Calm - N/A   Clear
8:31 AM 60.8 °F 55.4 °F 82% 30.13 in 10.0 mi NNW 3.5 mph - N/A   Clear
8:51 AM 62.6 °F 57.2 °F 82% 30.12 in 10.0 mi Calm Calm - N/A   Clear
9:11 AM 64.4 °F 57.2 °F 77% 30.12 in 10.0 mi WNW 4.6 mph - N/A   Clear
9:34 AM 64.4 °F 57.2 °F 77% 30.12 in 10.0 mi Calm Calm - N/A   Clear
9:51 AM 66.2 °F 57.2 °F 73% 30.13 in 10.0 mi Calm Calm - N/A   Clear
10:11 AM 66.2 °F 57.2 °F 73% 30.13 in 10.0 mi Calm Calm - N/A   Clear
10:12 AM 66.2 °F 57.2 °F 73% 30.13 in 10.0 mi Calm Calm - N/A   Clear
10:40 AM 69.8 °F 55.4 °F 60% 30.12 in 10.0 mi Calm Calm - N/A   Clear
10:59 AM 71.6 °F 53.6 °F 53% 30.12 in 10.0 mi Calm Calm - N/A   Clear
11:17 AM 71.6 °F 53.6 °F 53% 30.11 in 10.0 mi Calm Calm - N/A   Clear
11:31 AM 71.6 °F 53.6 °F 53% 30.11 in 10.0 mi Calm Calm - N/A   Clear
11:54 AM 73.4 °F 51.8 °F 47% 30.11 in 10.0 mi Calm Calm - N/A   Clear
12:12 PM 73.4 °F 51.8 °F 47% 30.11 in 10.0 mi WNW 6.9 mph - N/A   Clear
12:31 PM 73.4 °F 51.8 °F 47% 30.10 in 10.0 mi NNW 9.2 mph - N/A   Clear
12:51 PM 73.4 °F 51.8 °F 47% 30.10 in 10.0 mi NW 5.8 mph - N/A   Clear
1:11 PM 73.4 °F 51.8 °F 47% 30.10 in 10.0 mi NW 8.1 mph - N/A   Clear
1:31 PM 73.4 °F 51.8 °F 47% 30.10 in 10.0 mi WNW 10.4 mph - N/A   Clear
1:52 PM 75.2 °F 50.0 °F 41% 30.10 in 10.0 mi NNW 9.2 mph - N/A   Clear
2:15 PM 75.2 °F 48.2 °F 38% 30.10 in 10.0 mi NW 11.5 mph 16.1 mph N/A   Clear
2:31 PM 75.2 °F 48.2 °F 38% 30.10 in 10.0 mi NNW 10.4 mph 16.1 mph N/A   Clear
2:52 PM 75.2 °F 50.0 °F 41% 30.09 in 10.0 mi NNW 10.4 mph - N/A   Clear
3:31 PM 75.2 °F 51.8 °F 44% 30.09 in 10.0 mi NNW 9.2 mph - N/A   Clear
3:51 PM 75.2 °F 50.0 °F 41% 30.09 in 10.0 mi NW 10.4 mph - N/A   Clear
4:11 PM 75.2 °F 50.0 °F 41% 30.09 in 10.0 mi North 8.1 mph - N/A   Clear
4:32 PM 75.2 °F 48.2 °F 38% 30.08 in 10.0 mi NW 9.2 mph - N/A   Clear
4:51 PM 75.2 °F 48.2 °F 38% 30.07 in 10.0 mi NNW 8.1 mph - N/A   Clear
5:11 PM 75.2 °F 48.2 °F 38% 30.07 in 10.0 mi Calm Calm - N/A   Clear
5:31 PM 75.2 °F 48.2 °F 38% 30.07 in 10.0 mi Calm Calm - N/A   Clear
5:52 PM 75.2 °F 50.0 °F 41% 30.06 in 10.0 mi Calm Calm - N/A   Clear
6:11 PM 75.2 °F 50.0 °F 41% 30.06 in 10.0 mi Calm Calm - N/A   Clear
6:31 PM 73.4 °F 51.8 °F 47% 30.06 in 10.0 mi Calm Calm - N/A   Clear
6:51 PM 73.4 °F 51.8 °F 47% 30.05 in 10.0 mi Calm Calm - N/A   Clear
7:11 PM 71.6 °F 53.6 °F 53% 30.05 in 10.0 mi Calm Calm - N/A   Clear
7:31 PM 71.6 °F 55.4 °F 57% 30.04 in 10.0 mi Calm Calm - N/A   Clear
7:51 PM 69.8 °F 55.4 °F 60% 30.04 in 10.0 mi Calm Calm - N/A   Clear
8:11 PM 66.2 °F 57.2 °F 73% 30.04 in 10.0 mi Calm Calm - N/A   Clear
8:31 PM 64.4 °F 55.4 °F 73% 30.05 in 10.0 mi Calm Calm - N/A   Clear
8:51 PM 62.6 °F 55.4 °F 77% 30.05 in 10.0 mi Calm Calm - N/A   Clear
9:11 PM 62.6 °F 55.4 °F 77% 30.06 in 10.0 mi Calm Calm - N/A   Clear
9:31 PM 60.8 °F 53.6 °F 77% 30.07 in 10.0 mi Calm Calm - N/A   Clear
9:51 PM 59.0 °F 53.6 °F 82% 30.08 in 10.0 mi Calm Calm - N/A   Clear
10:11 PM 60.8 °F 53.6 °F 77% 30.07 in 10.0 mi Calm Calm - N/A   Clear
10:31 PM 57.2 °F 53.6 °F 88% 30.07 in 10.0 mi Calm Calm - N/A   Clear
10:51 PM 59.0 °F 53.6 °F 82% 30.08 in 10.0 mi Calm Calm - N/A   Clear
11:11 PM 59.0 °F 51.8 °F 77% 30.08 in 10.0 mi Calm Calm - N/A   Clear
11:31 PM 57.2 °F 53.6 °F 88% 30.08 in 10.0 mi Calm Calm - N/A   Clear
11:52 PM 55.4 °F 51.8 °F 88% 30.08 in 10.0 mi Calm Calm - N/A   Clear